• Em Portugal
  • Lista de países
  • Para 7 dias
  • Temperatura da água
  • Mapas de satélite
  • Mapa do tempo
  • Widgets de tempo
  • user-avatar
    Iniciar Sessão

    Previsão horária em Recife

    Hoje, 20 Janeiro, Sábado

    Tempo Temperatura Precipitação Vento Pressão Humidade
    00:00 +27°C° 0,7 mm 4 m/s 758 mmHg 86%
    01:00 +27°C° 0,7 mm 4 m/s 758 mmHg 86%
    02:00 +27°C° 0,3 mm 4 m/s 758 mmHg 87%
    03:00 +26°C° 0,3 mm 4 m/s 758 mmHg 87%
    04:00 +26°C° 0 mm 3 m/s 757 mmHg 87%
    05:00 +26°C° 0,2 mm 3 m/s 757 mmHg 87%
    06:00 +27°C° 0,2 mm 3 m/s 758 mmHg 87%
    07:00 +27°C° 0,2 mm 3 m/s 758 mmHg 86%
    08:00 +28°C° 0,3 mm 4 m/s 758 mmHg 81%
    09:00 +29°C° 0,3 mm 4 m/s 758 mmHg 76%
    10:00 +30°C° 0 mm 4 m/s 759 mmHg 70%
    11:00 +32°C° 0,1 mm 4 m/s 759 mmHg 67%
    12:00 +33°C° 0,1 mm 5 m/s 758 mmHg 64%
    13:00 +33°C° 0,1 mm 5 m/s 758 mmHg 60%
    14:00 +33°C° 0 mm 5 m/s 758 mmHg 61%
    15:00 +33°C° 0 mm 5 m/s 757 mmHg 61%
    16:00 +33°C° 0 mm 5 m/s 757 mmHg 62%
    17:00 +32°C° 0 mm 5 m/s 757 mmHg 66%
    18:00 +29°C° 0 mm 4 m/s 757 mmHg 71%
    19:00 +28°C° 0 mm 4 m/s 757 mmHg 75%
    20:00 +28°C° 0 mm 4 m/s 757 mmHg 77%
    21:00 +28°C° 0 mm 4 m/s 758 mmHg 79%
    22:00 +28°C° 0 mm 4 m/s 758 mmHg 81%
    23:00 +27°C° 0 mm 3 m/s 758 mmHg 82%

    Amanhã, 21 Janeiro, Domingo

    Tempo Temperatura Precipitação Vento Pressão Humidade
    00:00 +27°C° 0 mm 3 m/s 758 mmHg 83%
    01:00 +27°C° 0 mm 3 m/s 758 mmHg 84%
    02:00 +27°C° 0 mm 3 m/s 758 mmHg 84%
    03:00 +27°C° 0 mm 3 m/s 757 mmHg 85%
    04:00 +27°C° 0 mm 3 m/s 757 mmHg 85%
    05:00 +27°C° 0 mm 3 m/s 757 mmHg 85%
    06:00 +27°C° 0 mm 3 m/s 757 mmHg 85%
    07:00 +27°C° 0 mm 3 m/s 758 mmHg 84%
    08:00 +28°C° 0 mm 3 m/s 758 mmHg 78%
    09:00 +30°C° 0 mm 4 m/s 758 mmHg 71%
    10:00 +32°C° 0 mm 4 m/s 758 mmHg 65%
    11:00 +33°C° 0 mm 4 m/s 758 mmHg 62%
    12:00 +33°C° 0 mm 4 m/s 758 mmHg 59%
    13:00 +34°C° 0 mm 5 m/s 758 mmHg 57%
    14:00 +34°C° 0 mm 5 m/s 757 mmHg 58%
    15:00 +33°C° 0 mm 5 m/s 756 mmHg 60%
    16:00 +33°C° 0 mm 5 m/s 756 mmHg 62%
    17:00 +32°C° 0 mm 5 m/s 756 mmHg 67%
    18:00 +30°C° 0 mm 5 m/s 756 mmHg 71%
    19:00 +29°C° 0 mm 4 m/s 756 mmHg 76%
    20:00 +28°C° 0,1 mm 4 m/s 757 mmHg 78%
    21:00 +28°C° 0,1 mm 4 m/s 757 mmHg 80%
    22:00 +28°C° 0,1 mm 4 m/s 758 mmHg 81%
    23:00 +28°C° 0,2 mm 4 m/s 757 mmHg 82%

    Depois de amanhã, 22 Janeiro, Segunda-feira

    Tempo Temperatura Precipitação Vento Pressão Humidade
    00:00 +27°C° 0,2 mm 3 m/s 757 mmHg 83%
    01:00 +27°C° 0,2 mm 3 m/s 757 mmHg 84%
    02:00 +27°C° 0,2 mm 3 m/s 756 mmHg 85%
    03:00 +27°C° 0,2 mm 3 m/s 756 mmHg 85%
    04:00 +27°C° 0,2 mm 3 m/s 755 mmHg 85%
    05:00 +27°C° 0,4 mm 3 m/s 756 mmHg 85%
    06:00 +27°C° 0,4 mm 3 m/s 756 mmHg 85%
    07:00 +27°C° 0,4 mm 3 m/s 756 mmHg 85%
    08:00 +28°C° 0,7 mm 4 m/s 757 mmHg 80%
    09:00 +29°C° 0,7 mm 4 m/s 757 mmHg 76%
    10:00 +30°C° 0,7 mm 4 m/s 758 mmHg 71%
    11:00 +30°C° 0,4 mm 5 m/s 757 mmHg 69%
    12:00 +32°C° 0,4 mm 5 m/s 757 mmHg 67%
    13:00 +33°C° 0,4 mm 5 m/s 757 mmHg 65%
    14:00 +32°C° 0,1 mm 5 m/s 756 mmHg 65%
    15:00 +32°C° 0,1 mm 5 m/s 756 mmHg 65%
    16:00 +32°C° 0,1 mm 5 m/s 755 mmHg 65%
    17:00 +30°C° 0 mm 5 m/s 756 mmHg 68%
    18:00 +29°C° 0 mm 5 m/s 756 mmHg 71%
    19:00 +28°C° 0 mm 4 m/s 756 mmHg 75%
    20:00 +28°C° 0 mm 4 m/s 756 mmHg 76%
    21:00 +28°C° 0 mm 4 m/s 757 mmHg 77%
    22:00 +28°C° 0 mm 3 m/s 757 mmHg 78%
    23:00 +28°C° 0,1 mm 3 m/s 757 mmHg 80%

    23 Janeiro, Terça-feira

    Tempo Temperatura Precipitação Vento Pressão Humidade
    00:00 +27°C° 0,1 mm 3 m/s 756 mmHg 81%
    01:00 +27°C° 0,1 mm 3 m/s 756 mmHg 83%
    02:00 +27°C° 0,2 mm 3 m/s 756 mmHg 83%
    03:00 +27°C° 0,2 mm 3 m/s 755 mmHg 84%
    04:00 +27°C° 0,2 mm 4 m/s 755 mmHg 84%
    05:00 +27°C° 0,1 mm 4 m/s 756 mmHg 84%
    06:00 +27°C° 0,1 mm 4 m/s 756 mmHg 84%
    07:00 +27°C° 0,1 mm 4 m/s 756 mmHg 83%
    08:00 +29°C° 0,1 mm 4 m/s 757 mmHg 76%
    09:00 +30°C° 0,1 mm 4 m/s 757 mmHg 69%
    10:00 +32°C° 0,1 mm 5 m/s 757 mmHg 62%
    11:00 +33°C° 0,1 mm 5 m/s 757 mmHg 61%
    12:00 +33°C° 0,1 mm 5 m/s 757 mmHg 59%
    13:00 +34°C° 0,1 mm 5 m/s 756 mmHg 57%
    14:00 +34°C° 0,1 mm 5 m/s 756 mmHg 58%
    15:00 +33°C° 0,1 mm 5 m/s 755 mmHg 60%
    16:00 +33°C° 0,1 mm 6 m/s 755 mmHg 61%
    17:00 +32°C° 0,1 mm 5 m/s 755 mmHg 66%
    18:00 +30°C° 0,1 mm 5 m/s 756 mmHg 70%
    19:00 +29°C° 0,1 mm 5 m/s 756 mmHg 75%
    20:00 +28°C° 0,2 mm 4 m/s 756 mmHg 77%
    21:00 +28°C° 0,2 mm 4 m/s 757 mmHg 79%
    22:00 +28°C° 0,2 mm 4 m/s 757 mmHg 80%
    23:00 +28°C° 0,3 mm 4 m/s 757 mmHg 82%

    24 Janeiro, Quarta-feira

    Tempo Temperatura Precipitação Vento Pressão Humidade
    00:00 +28°C° 0,3 mm 4 m/s 756 mmHg 83%
    01:00 +27°C° 0,3 mm 4 m/s 756 mmHg 84%
    02:00 +27°C° 0,3 mm 4 m/s 756 mmHg 84%
    03:00 +27°C° 0,3 mm 4 m/s 755 mmHg 85%
    04:00 +27°C° 0,3 mm 4 m/s 755 mmHg 85%
    05:00 +27°C° 0,2 mm 4 m/s 755 mmHg 85%
    06:00 +27°C° 0,2 mm 4 m/s 756 mmHg 85%
    07:00 +27°C° 0,2 mm 4 m/s 756 mmHg 84%
    08:00 +28°C° 0,2 mm 4 m/s 757 mmHg 79%
    09:00 +29°C° 0,2 mm 5 m/s 757 mmHg 74%
    10:00 +30°C° 0,2 mm 5 m/s 757 mmHg 68%
    11:00 +32°C° 0,2 mm 5 m/s 757 mmHg 66%
    12:00 +33°C° 0,2 mm 5 m/s 757 mmHg 63%
    13:00 +33°C° 0,2 mm 5 m/s 756 mmHg 60%
    14:00 +33°C° 0,2 mm 5 m/s 756 mmHg 60%
    15:00 +33°C° 0,2 mm 5 m/s 755 mmHg 60%
    16:00 +33°C° 0,2 mm 5 m/s 755 mmHg 60%
    17:00 +32°C° 0 mm 5 m/s 755 mmHg 65%
    18:00 +30°C° 0 mm 4 m/s 756 mmHg 69%
    19:00 +29°C° 0 mm 4 m/s 756 mmHg 74%
    20:00 +28°C° 0 mm 4 m/s 756 mmHg 76%
    21:00 +28°C° 0 mm 4 m/s 757 mmHg 78%
    22:00 +28°C° 0 mm 3 m/s 757 mmHg 81%
    23:00 +27°C° 0,1 mm 3 m/s 756 mmHg 82%

    25 Janeiro, Quinta-feira

    Tempo Temperatura Precipitação Vento Pressão Humidade
    00:00 +27°C° 0,1 mm 3 m/s 756 mmHg 83%
    01:00 +27°C° 0,1 mm 3 m/s 756 mmHg 84%
    02:00 +27°C° 0,2 mm 3 m/s 756 mmHg 84%
    03:00 +27°C° 0,2 mm 3 m/s 755 mmHg 85%
    04:00 +27°C° 0,2 mm 3 m/s 755 mmHg 85%
    05:00 +27°C° 0,2 mm 3 m/s 755 mmHg 85%
    06:00 +27°C° 0,2 mm 3 m/s 756 mmHg 84%
    07:00 +27°C° 0,2 mm 3 m/s 756 mmHg 84%
    08:00 +28°C° 0,2 mm 4 m/s 756 mmHg 78%
    09:00 +29°C° 0,2 mm 4 m/s 757 mmHg 73%
    10:00 +32°C° 0,2 mm 4 m/s 757 mmHg 67%
    11:00 +32°C° 0,1 mm 4 m/s 757 mmHg 64%
    12:00 +33°C° 0,1 mm 4 m/s 756 mmHg 62%
    13:00 +33°C° 0,1 mm 4 m/s 756 mmHg 59%
    14:00 +33°C° 0,1 mm 4 m/s 756 mmHg 60%
    15:00 +33°C° 0,1 mm 4 m/s 755 mmHg 61%
    16:00 +32°C° 0,1 mm 4 m/s 755 mmHg 62%
    17:00 +30°C° 0 mm 4 m/s 755 mmHg 66%
    18:00 +29°C° 0 mm 4 m/s 755 mmHg 70%
    19:00 +29°C° 0 mm 4 m/s 755 mmHg 74%
    20:00 +28°C° 0 mm 3 m/s 756 mmHg 76%
    21:00 +28°C° 0 mm 3 m/s 756 mmHg 77%
    22:00 +28°C° 0 mm 3 m/s 756 mmHg 79%
    23:00 +27°C° 0 mm 3 m/s 756 mmHg 81%
    Mostrar mais